Torna al catalogo

CHINASAT 9

AttivoComunicazioniGEO
NORAD 33051·PAYLOAD·🇨🇳 China

Lanciato Jun 9, 2008 da Xichang Satellite Launch Center

Loading…

TLE

AggiornatoSource: Space-Track

Epoca: Sep 14, 2026, 14:14 UTC

1 33051U 08028A   26257.59347442 -.00000257  00000-0  00000-0 0  9995
2 33051   0.9912  84.0305 0005483 112.2926 103.2825  1.00273180 66935

Traccia CHINASAT 9 in tempo reale con AllMySat

Download on the App Store